Weather History for Montevideo, MN

Change the Weather History Date:

Saturday, July 27, 2013

  Actual Average Record
Temperature  
Mean Temperature 60 °F -  
Max Temperature 69 °F 84 °F 104 °F (1988)
Min Temperature 51 °F 60 °F 42 °F (1971)
Degree Days  
Heating Degree Days 5    
Growing Degree Days 10 (Base 50)    
Moisture  
Dew Point 47 °F    
Average Humidity 67    
Maximum Humidity 94    
Minimum Humidity 40    
Precipitation  
Precipitation 0.00 in - - ()
Sea Level Pressure  
Sea Level Pressure 30.09 in    
Wind  
Wind Speed 7 mph (North)    
Max Wind Speed 20 mph    
Max Gust Speed 25 mph    
Visibility 10 miles    
Events      
Averages and records for this station are not official NWS values.
T = Trace of Precipitation, MM = Missing Value Source: NWS Daily Summary

Daily Weather History Graph

Daily Weather History Graph

Search for Another Location

Airport:

Trip Planner

Search our weather history database for the weather conditions in past years. The results will help you decide how hot, cold, wet, or windy it might be!

Date:

Astronomy

Jul. 27, 2013 Rise Set
Actual Time 6:03 AM CDT 8:55 PM CDT
Civil Twilight 5:28 AM CDT 9:29 PM CDT
Nautical Twilight 4:44 AM CDT 10:12 PM CDT
Astronomical Twilight 3:53 AM CDT 11:03 PM CDT
Moon 11:23 PM CDT (7/27) 12:02 PM CDT (7/27)
Length of Visible Light 16h 00m
Length of Day
14h 52m
Waning Gibbous, 70% of the Moon is Illuminated
Jul 27
Waning Gibbous
Jul 29
Last Quarter
Aug 6
New
Aug 14
First Quarter
Aug 20
Full

Hourly Weather History & Observations

Time (CDT) Temp. Dew Point Humidity Pressure Visibility Wind Dir Wind Speed Gust Speed Precip Events Conditions
12:14 AM 55.4 °F 50.0 °F 82% 30.15 in 10.0 mi East 4.6 mph - N/A   Overcast
12:34 AM 55.4 °F 50.0 °F 82% 30.15 in 10.0 mi ENE 3.5 mph - N/A   Overcast
12:54 AM 53.6 °F 50.0 °F 88% 30.15 in 10.0 mi ENE 3.5 mph - N/A   Scattered Clouds
1:14 AM 53.6 °F 50.0 °F 88% 30.15 in 10.0 mi Calm Calm - N/A   Mostly Cloudy
1:34 AM 53.6 °F 48.2 °F 82% 30.15 in 10.0 mi Calm Calm - N/A   Scattered Clouds
1:54 AM 51.8 °F 48.2 °F 88% 30.15 in 10.0 mi Calm Calm - N/A   Mostly Cloudy
2:14 AM 53.6 °F 48.2 °F 82% 30.15 in 10.0 mi NE 3.5 mph - N/A   Mostly Cloudy
2:34 AM 53.6 °F 50.0 °F 88% 30.15 in 10.0 mi NE 4.6 mph - N/A   Overcast
2:54 AM 51.8 °F 48.2 °F 88% 30.15 in 10.0 mi NE 4.6 mph - N/A   Mostly Cloudy
3:14 AM 53.6 °F 50.0 °F 88% 30.14 in 10.0 mi Calm Calm - N/A   Overcast
3:34 AM 53.6 °F 50.0 °F 88% 30.14 in 10.0 mi Calm Calm - N/A   Overcast
3:54 AM 51.8 °F 50.0 °F 94% 30.15 in 10.0 mi North 3.5 mph - N/A   Overcast
4:14 AM 51.8 °F 50.0 °F 94% 30.14 in 10.0 mi Calm Calm - N/A   Overcast
4:34 AM 51.8 °F 50.0 °F 94% 30.15 in 10.0 mi North 3.5 mph - N/A   Overcast
4:54 AM 51.8 °F 50.0 °F 94% 30.15 in 10.0 mi North 4.6 mph - N/A   Mostly Cloudy
5:14 AM 51.8 °F 50.0 °F 94% 30.15 in 10.0 mi North 4.6 mph - N/A   Overcast
5:34 AM 53.6 °F 50.0 °F 88% 30.15 in 10.0 mi North 4.6 mph - N/A   Overcast
5:54 AM 51.8 °F 48.2 °F 88% 30.15 in 10.0 mi North 3.5 mph - N/A   Overcast
6:14 AM 51.8 °F 48.2 °F 88% 30.15 in 10.0 mi North 4.6 mph - N/A   Mostly Cloudy
6:34 AM 51.8 °F 48.2 °F 88% 30.15 in 10.0 mi North 5.8 mph - N/A   Scattered Clouds
6:53 AM 51.8 °F 48.2 °F 88% 30.15 in 10.0 mi North 5.8 mph - N/A   Mostly Cloudy
7:14 AM 51.8 °F 50.0 °F 94% 30.15 in 10.0 mi North 5.8 mph - N/A   Overcast
7:34 AM 51.8 °F 50.0 °F 94% 30.15 in 10.0 mi North 6.9 mph - N/A   Mostly Cloudy
7:53 AM 51.8 °F 48.2 °F 88% 30.15 in 10.0 mi NNE 9.2 mph - N/A   Overcast
8:14 AM 53.6 °F 50.0 °F 88% 30.16 in 10.0 mi NNE 10.4 mph - N/A   Mostly Cloudy
8:34 AM 55.4 °F 48.2 °F 77% 30.16 in 10.0 mi NNE 10.4 mph - N/A   Scattered Clouds
8:54 AM 55.4 °F 48.2 °F 77% 30.16 in 10.0 mi NNE 11.5 mph - N/A   Clear
9:14 AM 57.2 °F 48.2 °F 72% 30.15 in 10.0 mi North 10.4 mph - N/A   Clear
9:34 AM 57.2 °F 46.4 °F 67% 30.15 in 10.0 mi North 13.8 mph 17.3 mph N/A   Clear
9:54 AM 59.0 °F 46.4 °F 63% 30.14 in 10.0 mi North 11.5 mph 18.4 mph N/A   Clear
10:14 AM 60.8 °F 46.4 °F 59% 30.13 in 10.0 mi North 16.1 mph 19.6 mph N/A   Clear
10:34 AM 60.8 °F 46.4 °F 59% 30.13 in 10.0 mi North 13.8 mph 20.7 mph N/A   Clear
10:54 AM 62.6 °F 46.4 °F 55% 30.12 in 10.0 mi North 18.4 mph 21.9 mph N/A   Scattered Clouds
11:14 AM 62.6 °F 46.4 °F 55% 30.11 in 10.0 mi North 13.8 mph 23.0 mph N/A   Scattered Clouds
11:34 AM 62.6 °F 46.4 °F 55% 30.11 in 10.0 mi North 12.7 mph 21.9 mph N/A   Scattered Clouds
11:54 AM 64.4 °F 46.4 °F 52% 30.11 in 10.0 mi North 15.0 mph 24.2 mph N/A   Scattered Clouds
12:14 PM 64.4 °F 46.4 °F 52% 30.10 in 10.0 mi North 19.6 mph 25.3 mph N/A   Mostly Cloudy
12:34 PM 62.6 °F 44.6 °F 52% 30.10 in 10.0 mi North 11.5 mph - N/A   Mostly Cloudy
12:54 PM 64.4 °F 46.4 °F 52% 30.09 in 10.0 mi North 13.8 mph 21.9 mph N/A   Mostly Cloudy
1:14 PM 64.4 °F 46.4 °F 52% 30.08 in 10.0 mi North 13.8 mph - N/A   Mostly Cloudy
1:34 PM 64.4 °F 44.6 °F 49% 30.08 in 10.0 mi NNE 16.1 mph 20.7 mph N/A   Mostly Cloudy
1:54 PM 66.2 °F 46.4 °F 49% 30.07 in 10.0 mi North 15.0 mph 24.2 mph N/A   Mostly Cloudy
2:14 PM 66.2 °F 46.4 °F 49% 30.06 in 10.0 mi North 17.3 mph 21.9 mph N/A   Scattered Clouds
2:34 PM 66.2 °F 44.6 °F 46% 30.06 in 10.0 mi North 10.4 mph 19.6 mph N/A   Scattered Clouds
2:54 PM 66.2 °F 44.6 °F 46% 30.06 in 10.0 mi North 17.3 mph - N/A   Mostly Cloudy
3:14 PM 66.2 °F 46.4 °F 49% 30.06 in 10.0 mi North 12.7 mph 19.6 mph N/A   Mostly Cloudy
3:34 PM 66.2 °F 46.4 °F 49% 30.05 in 10.0 mi North 13.8 mph 19.6 mph N/A   Mostly Cloudy
3:54 PM 68.0 °F 46.4 °F 46% 30.04 in 10.0 mi North 16.1 mph 23.0 mph N/A   Mostly Cloudy
4:14 PM 68.0 °F 46.4 °F 46% 30.03 in 10.0 mi North 15.0 mph 24.2 mph N/A   Scattered Clouds
4:34 PM 68.0 °F 46.4 °F 46% 30.03 in 10.0 mi North 17.3 mph 24.2 mph N/A   Scattered Clouds
4:54 PM 69.8 °F 46.4 °F 43% 30.03 in 10.0 mi North 17.3 mph 20.7 mph N/A   Scattered Clouds
5:14 PM 68.0 °F 46.4 °F 46% 30.02 in 10.0 mi North 13.8 mph 23.0 mph N/A   Scattered Clouds
5:34 PM 69.8 °F 44.6 °F 40% 30.02 in 10.0 mi North 18.4 mph 21.9 mph N/A   Scattered Clouds
5:54 PM 69.8 °F 44.6 °F 40% 30.02 in 10.0 mi North 15.0 mph 20.7 mph N/A   Scattered Clouds
6:14 PM 69.8 °F 44.6 °F 40% 30.01 in 10.0 mi North 16.1 mph 25.3 mph N/A   Mostly Cloudy
6:33 PM 68.0 °F 44.6 °F 43% 30.01 in 10.0 mi North 16.1 mph 23.0 mph N/A   Scattered Clouds
6:54 PM 66.2 °F 44.6 °F 46% 30.01 in 10.0 mi North 11.5 mph 19.6 mph N/A   Scattered Clouds
7:14 PM 66.2 °F 46.4 °F 49% 30.01 in 10.0 mi NNE 13.8 mph 18.4 mph N/A   Scattered Clouds
7:34 PM 66.2 °F 44.6 °F 46% 30.01 in 10.0 mi North 15.0 mph 21.9 mph N/A   Scattered Clouds
7:54 PM 64.4 °F 44.6 °F 49% 30.01 in 10.0 mi North 11.5 mph 17.3 mph N/A   Scattered Clouds
8:14 PM 64.4 °F 46.4 °F 52% 30.01 in 10.0 mi North 9.2 mph - N/A   Clear
8:34 PM 62.6 °F 46.4 °F 55% 30.01 in 10.0 mi North 6.9 mph - N/A   Clear
8:54 PM 60.8 °F 46.4 °F 59% 30.01 in 10.0 mi North 8.1 mph - N/A   Clear
9:14 PM 60.8 °F 46.4 °F 59% 30.01 in 10.0 mi North 6.9 mph - N/A   Clear
9:34 PM 57.2 °F 48.2 °F 72% 30.02 in 10.0 mi NNW 4.6 mph - N/A   Clear
9:54 PM 57.2 °F 48.2 °F 72% 30.03 in 10.0 mi NNW 5.8 mph - N/A   Clear
10:13 PM 57.2 °F 48.2 °F 72% 30.03 in 10.0 mi NNW 5.8 mph - N/A   Clear
10:34 PM 57.2 °F 48.2 °F 72% 30.04 in 10.0 mi NE 12.7 mph 17.3 mph N/A   Mostly Cloudy
10:54 PM 59.0 °F 48.2 °F 67% 30.05 in 10.0 mi ENE 8.1 mph - N/A   Overcast
11:13 PM 57.2 °F 48.2 °F 72% 30.05 in 10.0 mi NE 5.8 mph - N/A   Mostly Cloudy
11:34 PM 55.4 °F 48.2 °F 77% 30.05 in 10.0 mi NNE 4.6 mph - N/A   Clear
11:54 PM 55.4 °F 48.2 °F 77% 30.05 in 10.0 mi NNE 5.8 mph - N/A   Clear